星链-3388 (STARLINK-3388 )

导读 | 星芒AI

STARLINK-3388 是 SpaceX 星链计划中的一颗低轨通信卫星,属于星链卫星群的第三批发射任务。该卫星设计用于提供全球高速互联网服务,支持偏远地区的网络接入。它运行在约 550 公里的近地轨道,配备先进通信设备,具备高带宽和低延迟特性。作为星链系统的一部分,STARLINK-3388 有助于增强全球卫星互联网覆盖,推动数字连接的普及。

基本信息
目录编号:
51131
目录名称:
STARLINK-3388
国际标识:
2022-005AD
轨道中心:
EARTH
卫星名称:
星链-3388
卫星全名:
星链-3388 (STARLINK-3388 )
卫星状态:
在轨 (已飞行1431 天)
发射日期:
2022-01-19 UTC
国别 :
美国 (US)
星等 :
--
轨道信息
数据来源 国际轨道数据 AOE轨道数据
星历时间 2025-12-19T10:59:12+0800
1天前
查看轨道信息
2025-12-19T07:00:00+0800
1天前
查看轨道信息
半长轴 6917.883km 6917.881km
偏心率 0.0001418 0.0001133
轨道倾角 53.219° 53.218°
近地点辐角 84.584° 71.518°
升交点赤经 300.791° 301.539°
平近点角 275.531° 105.841°
近地点 538.765km 538.962km
远地点 540.727km 540.53km
周期 95.438分钟 95.438分钟
每日圈数 15.088394 15.088401
详细信息
固有亮度:
5
最大亮度:
2.5
卫星平台:
Starlink v1.5
覆盖范围:
全球
运营商:
太空探索技术公司
运营商所在国:
美国
制造商(研发单位):
太空探索技术公司
制造商所在国:
美国
使用方式:
暂无
卫星简介
星链(Starlink)计划是由太空探索技术公司(SpaceX)提出的一个巨型低轨卫星互联网星座项目,计划在2019年至2024年间在太空搭建由约1.2万颗卫星组成的“星链”网络,其中1584颗将部署在地球上空550千米处的近地轨道,并从2020年开始工作。该卫星仍在工作。
2D轨道图
3D轨道图
轨道高度分析图
轨道倾角分析图
轨道综合分析图
查看轨道综合分析图